EN

Hourly Weather Lages

Today, 1 August, Sunday

Time Temperature Precipitation Wind Pressure Humidity
00:00 +7°C° 0 mm 1 mps 693 mmHg 96%
01:00 +7°C° 0 mm 1 mps 693 mmHg 97%
02:00 +7°C° 0 mm 1 mps 693 mmHg 97%
03:00 +7°C° 0 mm 1 mps 693 mmHg 97%
04:00 +8°C° 0 mm 1 mps 693 mmHg 97%
05:00 +8°C° 0 mm 1 mps 693 mmHg 96%
06:00 +8°C° 0 mm 1 mps 693 mmHg 96%
07:00 +9°C° 0 mm 1 mps 693 mmHg 91%
08:00 +9°C° 0 mm 2 mps 693 mmHg 87%
09:00 +10°C° 0 mm 2 mps 694 mmHg 82%
10:00 +12°C° 0 mm 2 mps 694 mmHg 74%
11:00 +14°C° 0 mm 2 mps 694 mmHg 65%
12:00 +16°C° 0 mm 2 mps 694 mmHg 56%
13:00 +16°C° 0 mm 2 mps 693 mmHg 54%
14:00 +18°C° 0 mm 1 mps 693 mmHg 52%
15:00 +18°C° 0 mm 1 mps 692 mmHg 50%
16:00 +15°C° 0 mm 1 mps 692 mmHg 60%
17:00 +13°C° 0 mm 1 mps 692 mmHg 71%
18:00 +11°C° 0 mm 1 mps 692 mmHg 82%
19:00 +11°C° 0 mm 1 mps 692 mmHg 86%
20:00 +10°C° 0 mm 1 mps 692 mmHg 90%
21:00 +9°C° 0 mm 1 mps 692 mmHg 94%
22:00 +9°C° 0 mm 1 mps 692 mmHg 94%
23:00 +9°C° 0 mm 1 mps 692 mmHg 95%

Tomorrow, 2 August, Monday

Time Temperature Precipitation Wind Pressure Humidity
00:00 +9°C° 0 mm 1 mps 692 mmHg 95%
01:00 +8°C° 0 mm 1 mps 692 mmHg 96%
02:00 +8°C° 0 mm 1 mps 691 mmHg 97%
03:00 +8°C° 0 mm 1 mps 691 mmHg 98%
04:00 +8°C° 0 mm 1 mps 691 mmHg 97%
05:00 +7°C° 0 mm 0 mps 691 mmHg 96%
06:00 +7°C° 0 mm 0 mps 691 mmHg 94%
07:00 +8°C° 0 mm 0 mps 692 mmHg 91%
08:00 +9°C° 0 mm 0 mps 692 mmHg 88%
09:00 +10°C° 0 mm 0 mps 692 mmHg 85%
10:00 +12°C° 0 mm 0 mps 692 mmHg 75%
11:00 +15°C° 0 mm 1 mps 692 mmHg 65%
12:00 +18°C° 0 mm 1 mps 692 mmHg 56%
13:00 +19°C° 0 mm 1 mps 692 mmHg 51%
14:00 +19°C° 0 mm 1 mps 691 mmHg 46%
15:00 +18°C° 0 mm 2 mps 691 mmHg 42%
16:00 +16°C° 0 mm 1 mps 690 mmHg 52%
17:00 +14°C° 0 mm 1 mps 690 mmHg 62%
18:00 +12°C° 0 mm 1 mps 690 mmHg 71%
19:00 +11°C° 0 mm 1 mps 690 mmHg 75%
20:00 +9°C° 0 mm 1 mps 690 mmHg 78%
21:00 +8°C° 0 mm 1 mps 691 mmHg 82%
22:00 +8°C° 0 mm 1 mps 691 mmHg 86%
23:00 +7°C° 0 mm 1 mps 691 mmHg 90%

Day after tomorrow, 3 August, Tuesday

Time Temperature Precipitation Wind Pressure Humidity
00:00 +7°C° 0 mm 1 mps 691 mmHg 94%
01:00 +6°C° 0 mm 1 mps 691 mmHg 94%
02:00 +5°C° 0 mm 0 mps 691 mmHg 95%
03:00 +5°C° 0 mm 0 mps 690 mmHg 95%
04:00 +5°C° 0 mm 0 mps 690 mmHg 96%
05:00 +6°C° 0 mm 1 mps 691 mmHg 96%
06:00 +5°C° 0 mm 1 mps 691 mmHg 97%
07:00 +7°C° 0 mm 1 mps 691 mmHg 90%
08:00 +9°C° 0 mm 1 mps 692 mmHg 82%
09:00 +11°C° 0 mm 1 mps 692 mmHg 75%
10:00 +13°C° 0 mm 1 mps 692 mmHg 66%
11:00 +15°C° 0 mm 1 mps 692 mmHg 56%
12:00 +18°C° 0 mm 1 mps 692 mmHg 47%
13:00 +18°C° 0 mm 1 mps 692 mmHg 45%
14:00 +19°C° 0 mm 1 mps 692 mmHg 43%
15:00 +19°C° 0 mm 1 mps 691 mmHg 41%
16:00 +16°C° 0 mm 1 mps 691 mmHg 51%
17:00 +13°C° 0 mm 1 mps 691 mmHg 62%
18:00 +11°C° 0 mm 1 mps 691 mmHg 72%
19:00 +10°C° 0 mm 1 mps 691 mmHg 76%
20:00 +9°C° 0 mm 1 mps 692 mmHg 80%
21:00 +8°C° 0 mm 1 mps 692 mmHg 84%
22:00 +8°C° 0 mm 1 mps 692 mmHg 87%
23:00 +7°C° 0 mm 1 mps 692 mmHg 89%

4 August, Wednesday

Time Temperature Precipitation Wind Pressure Humidity
00:00 +6°C° 0 mm 0 mps 692 mmHg 92%
01:00 +6°C° 0 mm 0 mps 692 mmHg 91%
02:00 +6°C° 0 mm 0 mps 692 mmHg 91%
03:00 +5°C° 0 mm 0 mps 692 mmHg 91%
04:00 +5°C° 0 mm 0 mps 692 mmHg 91%
05:00 +6°C° 0 mm 1 mps 692 mmHg 91%
06:00 +6°C° 0 mm 1 mps 692 mmHg 90%
07:00 +7°C° 0 mm 1 mps 693 mmHg 85%
08:00 +9°C° 0 mm 1 mps 693 mmHg 80%
09:00 +10°C° 0 mm 1 mps 694 mmHg 75%
10:00 +13°C° 0 mm 1 mps 694 mmHg 67%
11:00 +15°C° 0 mm 2 mps 694 mmHg 60%
12:00 +17°C° 0 mm 2 mps 694 mmHg 52%
13:00 +18°C° 0 mm 2 mps 694 mmHg 52%
14:00 +18°C° 0 mm 2 mps 693 mmHg 51%
15:00 +19°C° 0 mm 2 mps 693 mmHg 50%
16:00 +16°C° 0 mm 2 mps 692 mmHg 62%
17:00 +14°C° 0 mm 2 mps 692 mmHg 73%
18:00 +12°C° 0 mm 1 mps 692 mmHg 85%
19:00 +11°C° 0 mm 1 mps 693 mmHg 89%
20:00 +11°C° 0 mm 1 mps 693 mmHg 93%
21:00 +10°C° 0 mm 1 mps 693 mmHg 97%
22:00 +10°C° 0 mm 1 mps 693 mmHg 97%
23:00 +9°C° 0 mm 1 mps 693 mmHg 97%

5 August, Thursday

Time Temperature Precipitation Wind Pressure Humidity
00:00 +9°C° 0 mm 1 mps 693 mmHg 98%
01:00 +9°C° 0 mm 1 mps 693 mmHg 97%
02:00 +8°C° 0 mm 1 mps 693 mmHg 97%
03:00 +8°C° 0 mm 1 mps 693 mmHg 97%
04:00 +8°C° 0 mm 1 mps 693 mmHg 97%
05:00 +8°C° 0 mm 1 mps 693 mmHg 97%
06:00 +8°C° 0 mm 1 mps 693 mmHg 96%
07:00 +9°C° 0 mm 1 mps 693 mmHg 91%
08:00 +10°C° 0 mm 2 mps 694 mmHg 87%
09:00 +12°C° 0 mm 2 mps 694 mmHg 82%
10:00 +13°C° 0 mm 3 mps 694 mmHg 73%
11:00 +16°C° 0 mm 3 mps 694 mmHg 64%
12:00 +18°C° 0 mm 4 mps 694 mmHg 55%
13:00 +18°C° 0 mm 4 mps 694 mmHg 55%
14:00 +18°C° 0 mm 3 mps 694 mmHg 55%
15:00 +19°C° 0 mm 3 mps 693 mmHg 55%
16:00 +17°C° 0 mm 3 mps 693 mmHg 63%
17:00 +16°C° 0 mm 3 mps 693 mmHg 71%
18:00 +13°C° 0 mm 3 mps 693 mmHg 79%
19:00 +12°C° 0 mm 3 mps 693 mmHg 84%
20:00 +12°C° 0 mm 3 mps 694 mmHg 88%
21:00 +11°C° 0 mm 3 mps 694 mmHg 93%
22:00 +11°C° 0 mm 3 mps 694 mmHg 92%
23:00 +12°C° 0 mm 3 mps 694 mmHg 91%

6 August, Friday

Time Temperature Precipitation Wind Pressure Humidity
00:00 +12°C° 0 mm 3 mps 694 mmHg 90%
01:00 +12°C° 0 mm 3 mps 694 mmHg 91%
02:00 +12°C° 0 mm 3 mps 694 mmHg 92%
03:00 +12°C° 0 mm 3 mps 694 mmHg 93%
04:00 +12°C° 0 mm 3 mps 694 mmHg 92%
05:00 +13°C° 0 mm 3 mps 694 mmHg 91%
06:00 +13°C° 0 mm 3 mps 694 mmHg 89%
07:00 +13°C° 0 mm 3 mps 694 mmHg 89%
08:00 +13°C° 0 mm 3 mps 694 mmHg 88%
09:00 +13°C° 0 mm 4 mps 695 mmHg 87%
10:00 +14°C° 0 mm 4 mps 695 mmHg 87%
11:00 +14°C° 0 mm 4 mps 695 mmHg 86%
12:00 +14°C° 0 mm 4 mps 695 mmHg 85%
13:00 +14°C° 0 mm 4 mps 694 mmHg 87%
14:00 +14°C° 0 mm 3 mps 694 mmHg 88%
15:00 +13°C° 0 mm 3 mps 693 mmHg 90%
16:00 +13°C° 0 mm 3 mps 693 mmHg 91%
17:00 +13°C° 0 mm 3 mps 693 mmHg 92%
18:00 +13°C° 0 mm 3 mps 693 mmHg 93%
19:00 +13°C° 0 mm 3 mps 693 mmHg 93%
20:00 +12°C° 0 mm 3 mps 693 mmHg 92%
21:00 +12°C° 0 mm 3 mps 694 mmHg 91%
22:00 +12°C° 0 mm 3 mps 694 mmHg 91%
23:00 +12°C° 0 mm 4 mps 693 mmHg 91%
Show more